Temperature
5 4 3 4 4 5 5 5 4 6 7 7 6 7 8 8 8 8 8 8 9 9 10 11 11 11 12 12 12 12 12 12 12 12 12 12 12 13 13 13 13 13 13 14
4 4 5 5 5 5 5 5 5 6 7 7 7 7 8 8 8 8 8 8 8 9 10 10 10 11 11 11 12 12 12 12 12 12 12 13 13 13 13 13 13 13 13 13
4 5 6 6 6 6 5 5 5 6 7 7 7 6 7 8 8 8 8 8 9 9 9 10 10 11 11 11 11 11 12 12 12 12 12 12 12 12 12 12 13 13 13 13
5 6 6 6 6 6 6 7 7 7 6 6 6 6 6 7 8 8 8 8 8 9 9 10 10 10 10 11 11 11 11 12 12 12 12 12 12 12 12 12 12 12 12 13
5 6 6 6 7 7 6 7 7 7 6 6 6 6 6 7 7 7 7 7 8 8 9 9 9 10 10 10 11 11 11 11 11 12 12 12 12 12 12 12 12 12 12 12
5 6 7 7 7 7 7 7 6 6 6 6 6 6 6 6 6 7 7 7 7 8 8 8 9 9 10 10 10 11 11 11 11 11 11 11 11 12 12 12 12 12 12 12
5 6 7 7 7 7 7 6 5 6 5 6 7 7 6 6 7 7 7 7 7 7 7 8 8 9 9 9 10 10 10 10 11 11 11 11 11 12 12 12 12 12 12 12
5 5 7 7 7 7 7 6 6 6 6 6 7 6 6 6 7 7 6 6 7 7 7 7 7 8 8 9 9 10 10 10 10 10 11 11 11 11 11 11 11 12 12 12
5 6 7 8 7 7 7 6 6 6 6 6 6 6 7 7 7 7 6 6 6 6 6 7 7 7 8 8 9 9 9 10 10 10 10 10 11 11 11 11 11 11 11 11
6 6 7 8 8 7 7 7 6 6 7 7 7 6 6 6 6 6 6 6 5 5 6 6 6 7 7 8 8 8 9 9 9 10 10 10 10 10 10 11 11 11 11 11
7 6 6 7 7 7 7 7 7 6 7 7 7 6 6 6 6 6 5 5 5 5 5 5 6 6 7 7 8 8 8 9 9 9 9 9 10 10 10 10 10 10 10 11
7 6 6 7 8 8 7 7 7 7 7 6 6 6 6 6 6 6 5 5 5 5 5 5 6 6 7 7 7 8 8 8 8 9 9 9 9 9 10 10 10 10 10 10
7 6 5 6 7 7 7 7 7 7 6 5 6 6 6 6 5 5 5 5 5 5 5 5 6 6 6 6 7 7 7 8 8 8 8 9 9 9 9 9 9 9 9 10
7 6 5 6 6 7 7 7 7 6 5 6 6 6 5 5 5 5 5 5 4 4 4 5 5 5 6 6 6 6 7 7 7 8 8 8 8 8 8 8 8 9 9 9
7 6 6 6 7 7 7 7 7 6 6 6 6 6 5 5 5 5 5 5 4 4 4 4 5 5 5 6 6 6 6 6 7 7 7 7 7 7 8 8 8 8 8 8
6 6 6 6 7 7 6 6 7 6 6 6 6 6 6 5 5 5 4 4 4 4 4 4 4 5 5 5 5 6 6 6 6 6 6 6 7 7 7 7 7 7 7 7
5 5 5 5 6 7 6 6 6 6 6 6 6 6 5 5 5 4 4 4 4 4 4 4 4 4 4 4 5 5 5 5 6 6 6 6 6 6 6 6 6 6 6 6
6 5 4 5 5 6 6 7 7 6 6 6 6 5 5 4 4 5 5 5 4 4 4 4 4 4 4 4 4 4 4 5 5 5 5 5 5 5 5 5 5 5 5 5
5 5 4 4 5 6 6 7 7 6 6 6 5 5 5 5 4 4 4 4 4 4 4 4 3 3 3 3 4 4 4 4 4 4 4 4 4 4 4 4 4 4 4 4
5 4 4 4 6 6 7 7 7 7 6 6 5 4 4 5 3 3 4 4 4 4 4 3 3 3 3 3 3 3 3 3 3 3 3 3 3 3 3 3 3 3 3 3
5 4 4 4 5 5 6 6 7 6 6 6 6 6 5 4 4 4 4 4 4 3 3 3 3 3 3 2 2 2 2 2 2 1 2 2 2 2 2 2 2 2 2 2
4 4 4 4 5 5 6 6 5 6 6 6 6 6 6 5 5 4 4 4 3 3 3 3 2 2 2 2 2 2 1 1 1 1 1 1 1 1 1 1 1 1 1 1
3 4 3 4 5 6 6 7 7 7 7 6 6 6 6 5 4 4 3 3 3 2 2 2 2 1 1 1 1 1 0 0 0 0 0 0 0 -0 -0 -0 -0 -0 -0 -1
3 3 3 3 4 5 6 7 7 7 7 7 6 6 6 5 4 4 3 3 2 2 2 1 1 1 1 0 -0 -0 -1 -1 -1 -1 -1 -1 -1 -1 -1 -1 -1 -2 -2 -2
3 3 3 3 3 5 6 7 7 6 6 6 6 5 5 5 4 3 3 2 2 2 1 1 0 0 -0 -1 -1 -1 -1 -1 -1 -1 -1 -1 -2 -2 -2 -2 -2 -2 -3 -3
2 3 3 4 4 4 6 7 6 6 6 6 5 5 4 4 4 3 2 2 2 1 1 0 -0 -0 -1 -1 -1 -1 -2 -2 -2 -2 -2 -2 -2 -3 -3 -3 -3 -3 -3 -3
Wind_Speed
3 3 6 9 10 7 5 7 12 13 10 9 13 18 19 14 10 11 11 10 11 13 12 9 8 9 8 8 9 10 11 11 9 6 7 8 8 7 7 8 12 15 16 17
2 7 10 8 8 9 10 11 12 12 7 7 11 16 15 12 10 9 10 10 11 11 9 8 7 7 8 9 9 10 11 11 10 8 7 6 7 6 7 8 10 13 15 16
6 5 5 7 8 9 10 10 8 9 10 7 7 9 8 7 5 6 7 7 7 8 8 7 6 6 7 8 9 10 10 10 10 10 7 6 5 4 6 8 9 10 12 14
6 6 5 6 7 7 7 7 8 9 6 5 3 5 7 8 8 7 7 7 6 6 5 4 4 5 6 7 8 8 8 9 10 10 9 11 10 8 8 9 8 9 11 11
5 3 3 5 6 6 7 6 7 7 5 5 3 3 7 8 8 10 9 8 7 6 4 2 2 3 3 4 5 7 7 7 8 9 11 12 10 8 7 8 10 10 9 10
5 3 3 4 4 5 5 4 5 3 1 3 3 2 5 7 10 11 11 10 8 7 5 4 3 2 1 1 2 5 6 6 6 7 9 10 11 11 11 11 11 10 8 8
3 3 3 2 3 2 0 1 2 3 1 3 2 0 3 8 10 9 10 9 8 8 7 6 6 5 4 3 2 3 5 4 4 6 7 8 9 10 11 10 10 9 7 6
1 4 3 3 3 2 1 1 1 1 2 3 3 2 4 8 9 9 9 9 9 9 8 8 8 7 6 6 5 4 3 2 2 4 5 7 8 7 7 8 7 8 7 7
0 3 3 3 3 1 1 1 2 1 1 1 3 4 4 9 11 11 12 12 12 11 11 10 9 10 10 9 8 7 6 5 4 3 5 5 6 6 6 6 6 6 5 5
1 2 4 2 1 1 2 2 0 0 0 1 3 4 6 10 11 11 12 12 11 11 12 13 12 13 13 12 12 11 10 9 7 6 6 5 5 5 5 6 6 5 5 6
0 0 4 2 1 2 2 2 1 1 0 1 1 3 5 6 7 9 10 11 11 12 12 12 12 12 13 13 13 13 13 13 11 9 8 7 5 5 6 5 5 5 5 5
1 1 2 3 4 2 1 2 2 0 2 2 2 2 5 5 6 7 9 10 10 11 11 12 13 13 14 14 14 14 13 13 12 10 9 8 7 7 6 4 4 3 4 4
0 2 2 5 5 5 3 4 2 1 2 2 2 1 4 5 7 8 8 9 9 11 12 12 13 13 13 13 13 13 13 12 11 11 11 11 9 9 7 5 4 3 3 2
2 3 2 2 3 3 4 6 5 4 3 2 2 2 3 4 5 6 7 8 8 10 11 11 12 12 12 12 12 12 12 12 11 11 12 12 10 9 7 6 6 5 3 2
3 3 2 1 1 1 3 5 6 5 3 3 3 3 1 1 3 4 5 7 8 9 10 10 10 10 10 11 11 11 11 11 11 11 12 10 9 8 8 7 6 5 4 3
3 2 2 3 4 3 5 6 5 4 4 5 5 2 1 3 4 5 5 6 7 7 8 8 9 9 10 9 10 10 10 10 10 10 10 9 9 9 8 7 6 6 5 4
2 2 2 2 5 3 4 4 2 2 1 3 3 3 3 4 3 2 2 4 5 5 6 7 7 7 7 7 8 8 8 8 9 9 9 9 9 8 8 7 7 6 5 5
1 2 1 1 4 1 4 3 1 3 2 2 3 3 4 5 4 3 2 3 3 4 4 5 5 6 6 7 7 7 7 8 8 8 9 8 8 8 7 7 6 5 4 4
2 3 2 2 1 2 4 2 1 2 1 1 4 5 5 5 5 3 2 2 2 2 2 3 3 4 5 6 6 7 8 8 9 9 9 9 8 8 8 8 7 5 4 4
3 4 3 2 1 3 4 2 1 3 2 3 5 7 6 5 2 2 1 3 3 3 3 3 3 4 5 6 6 7 8 8 8 8 8 8 7 7 7 7 7 5 5 5
2 2 2 2 2 5 5 1 3 3 6 4 6 6 6 5 4 4 4 3 3 3 3 3 4 4 5 5 5 6 6 6 6 6 6 7 7 7 7 6 6 6 5 5
4 2 2 3 3 6 3 4 5 6 2 4 6 5 6 5 5 5 5 4 3 3 3 3 3 4 5 5 5 5 6 6 6 6 6 7 7 6 6 6 6 6 5 5
4 6 5 6 7 5 4 5 4 4 5 5 5 5 7 6 5 5 4 3 2 2 1 2 2 3 5 5 4 5 6 7 7 6 7 7 7 7 6 6 7 6 5 5
5 2 3 4 6 5 5 3 3 4 5 5 5 6 7 6 6 5 4 3 2 1 1 1 2 3 4 5 4 4 6 6 5 6 6 6 6 7 7 6 5 5 6 6
6 3 3 5 6 4 5 6 5 4 5 5 5 5 7 7 6 5 4 3 2 1 0 1 1 2 4 4 5 5 5 5 5 6 6 6 6 6 7 6 6 6 6 7
6 8 7 8 8 7 6 6 7 7 7 7 7 6 5 6 6 5 4 2 2 1 0 1 2 3 4 5 5 6 5 5 5 6 6 6 6 6 6 7 8 9 10 13
Wind_Direction
161 161 217 218 210 222 249 265 276 277 277 282 273 278 285 286 273 268 263 262 262 259 257 253 239 225 209 204 199 195 191 187 184 187 190 195 197 193 191 193 188 183 181 179
166 235 236 229 229 239 252 268 277 287 287 284 279 283 284 283 273 266 265 265 263 263 265 259 242 226 208 204 201 199 197 189 187 193 190 189 181 186 191 193 190 183 180 180
211 240 233 226 241 245 253 251 264 279 305 286 291 297 299 314 297 291 289 279 274 262 265 254 229 219 206 205 201 204 199 193 189 189 184 177 169 168 186 188 188 184 181 182
240 255 246 243 245 232 264 246 255 278 305 299 309 305 316 332 331 333 326 323 310 295 281 258 227 218 210 210 204 200 195 194 192 189 185 186 189 189 190 183 181 184 184 183
245 250 235 243 241 217 243 260 269 275 270 285 282 256 311 341 341 343 338 332 333 332 322 296 257 233 213 202 199 195 191 190 192 192 192 193 192 186 176 173 173 181 186 185
245 249 231 238 261 235 258 289 283 262 248 295 286 236 325 344 333 335 340 341 348 351 358 6 18 39 85 124 170 167 169 178 183 186 186 186 179 173 171 173 178 179 181 184
310 276 239 223 292 306 322 359 5 6 349 284 326 45 324 331 340 345 347 353 4 13 11 15 22 29 42 55 69 116 130 143 166 176 179 177 171 166 171 174 177 174 178 183
343 313 256 218 218 250 274 169 152 245 285 308 352 3 323 335 354 8 12 20 24 30 28 29 31 32 41 41 46 68 90 102 118 155 168 169 159 160 165 168 171 174 178 181
237 292 284 239 221 187 313 276 207 184 279 341 345 336 339 360 10 16 23 31 32 32 36 38 38 37 41 41 43 50 60 71 81 113 125 134 141 145 151 158 161 169 170 173
242 293 297 299 22 323 209 251 50 146 343 27 347 357 348 349 6 15 21 28 31 35 38 39 41 41 42 43 45 47 49 55 62 76 96 97 106 120 131 137 147 155 156 158
7 343 321 355 347 308 324 328 293 246 194 126 31 352 349 360 14 23 26 30 34 35 36 37 38 40 43 43 43 42 43 47 50 57 67 78 88 101 106 114 133 149 152 154
271 121 312 292 286 258 253 297 294 58 9 66 113 3 0 26 32 39 37 36 38 39 38 38 38 39 38 38 37 36 36 40 41 47 56 61 65 75 83 88 94 106 135 153
67 81 22 353 344 351 338 321 307 139 88 63 93 16 15 37 43 43 44 41 40 41 40 39 38 38 36 36 35 33 34 35 36 42 47 50 50 54 59 62 69 83 98 120
101 64 118 163 255 302 328 345 4 86 93 81 85 111 37 39 45 42 42 46 46 43 41 39 37 33 32 32 33 32 31 31 35 40 43 42 38 39 40 41 45 48 58 81
67 48 17 327 319 13 23 5 24 57 97 126 130 115 134 94 75 56 52 54 52 46 42 38 36 31 29 28 28 30 29 28 33 39 40 35 31 32 33 33 30 30 31 32
47 62 19 10 10 30 28 8 21 47 71 102 103 88 128 108 84 66 58 60 56 47 41 37 35 33 29 26 25 27 27 25 32 38 34 27 27 28 27 23 21 22 17 13
28 84 50 324 325 19 1 329 357 73 73 148 157 181 140 109 97 94 81 74 68 53 43 35 30 26 22 20 24 25 20 22 31 34 28 23 20 19 15 12 15 11 3 360
128 87 105 16 35 46 265 300 118 110 52 99 132 140 141 135 122 84 87 99 79 59 47 34 25 20 15 15 17 18 22 25 26 25 20 15 11 8 4 5 3 354 347 343
155 142 105 90 66 284 291 274 175 144 305 237 148 140 137 127 88 28 26 84 93 72 55 37 25 20 15 12 8 19 23 20 20 14 6 2 0 358 355 353 345 339 335 331
59 90 109 117 149 235 247 228 158 103 278 240 168 160 159 139 142 241 167 100 81 63 51 42 28 28 20 5 9 23 18 15 7 356 350 350 351 349 343 335 327 324 322 313
13 35 103 160 224 264 251 206 111 169 238 194 172 169 166 178 192 169 134 113 96 76 56 46 40 27 6 358 15 22 12 358 341 338 340 342 344 340 333 327 322 319 317 313
192 180 199 169 206 257 220 140 180 214 189 153 164 166 156 149 130 130 133 123 103 75 48 41 34 12 357 1 14 9 354 334 334 339 341 339 338 337 334 326 322 316 312 310
210 198 198 199 220 251 215 206 213 172 166 172 167 166 149 144 153 153 148 142 132 108 50 28 28 3 352 352 2 354 333 333 337 341 338 334 334 333 330 327 324 321 314 307
279 207 202 258 260 252 243 232 209 183 177 171 161 156 153 155 157 155 154 161 158 127 42 17 21 358 340 337 340 327 321 328 334 332 327 327 330 328 326 325 322 319 316 311
241 221 225 258 266 273 257 222 201 170 143 137 135 147 155 149 153 159 165 171 166 148 58 32 1 323 316 322 323 321 322 330 331 327 325 326 324 320 319 318 313 313 303 306
211 199 201 231 222 206 231 217 183 167 169 162 151 147 148 151 154 154 161 163 152 141 41 1 337 323 318 323 325 328 333 338 333 327 323 319 316 315 316 316 315 308 307 311
Height
1482 1486 1486 1484 1484 1483 1483 1483 1480 1472 1465 1464 1458 1451 1442 1438 1437 1434 1431 1430 1428 1426 1425 1426 1427 1429 1431 1433 1436 1439 1442 1446 1449 1453 1456 1459 1462 1466 1470 1474 1478 1483 1487 1492
1484 1483 1478 1478 1479 1480 1480 1479 1475 1467 1461 1459 1454 1446 1438 1434 1432 1429 1427 1425 1423 1421 1420 1420 1421 1423 1425 1427 1430 1434 1437 1440 1443 1448 1451 1454 1457 1461 1465 1469 1473 1478 1482 1487
1480 1476 1473 1475 1475 1476 1475 1475 1472 1467 1461 1455 1454 1446 1437 1431 1428 1425 1423 1421 1419 1418 1416 1415 1416 1418 1420 1422 1425 1429 1431 1434 1438 1442 1446 1449 1453 1457 1461 1464 1469 1473 1478 1483
1477 1472 1471 1472 1471 1471 1471 1465 1464 1463 1464 1461 1457 1453 1440 1434 1428 1425 1422 1420 1417 1415 1413 1412 1412 1413 1415 1417 1420 1423 1426 1429 1433 1437 1439 1442 1446 1450 1454 1459 1464 1469 1474 1479
1474 1470 1469 1469 1466 1466 1466 1462 1462 1461 1461 1460 1455 1456 1445 1436 1431 1427 1423 1420 1416 1413 1412 1411 1410 1410 1411 1413 1415 1418 1422 1424 1428 1431 1434 1438 1442 1446 1450 1455 1461 1465 1470 1475
1470 1467 1467 1465 1463 1462 1462 1461 1459 1459 1460 1460 1453 1455 1448 1442 1437 1429 1424 1420 1417 1414 1412 1411 1410 1410 1410 1411 1412 1415 1418 1421 1425 1428 1430 1433 1437 1441 1445 1451 1456 1462 1466 1471
1470 1466 1464 1463 1463 1461 1462 1465 1467 1464 1464 1458 1451 1451 1450 1444 1438 1432 1427 1422 1418 1416 1413 1412 1411 1410 1410 1410 1411 1413 1416 1419 1422 1425 1427 1430 1433 1437 1442 1448 1453 1457 1462 1466
1472 1471 1463 1461 1462 1461 1461 1463 1468 1467 1461 1456 1451 1451 1451 1445 1439 1434 1430 1425 1421 1418 1417 1415 1413 1412 1411 1412 1412 1414 1416 1418 1420 1422 1425 1428 1431 1436 1440 1445 1450 1455 1459 1463
1471 1469 1461 1459 1459 1459 1460 1461 1461 1463 1460 1460 1456 1454 1449 1445 1441 1437 1433 1429 1426 1423 1421 1419 1417 1415 1414 1414 1414 1416 1416 1417 1419 1421 1424 1427 1431 1435 1439 1443 1448 1452 1456 1460
1467 1468 1462 1459 1458 1458 1459 1458 1461 1461 1457 1456 1457 1456 1455 1449 1445 1441 1438 1435 1432 1429 1426 1423 1421 1419 1418 1417 1417 1418 1418 1418 1419 1421 1424 1427 1431 1435 1439 1442 1446 1450 1453 1457
1466 1468 1466 1461 1460 1460 1459 1459 1458 1458 1457 1458 1459 1462 1457 1454 1450 1447 1444 1441 1438 1434 1431 1429 1427 1425 1424 1423 1422 1421 1421 1420 1422 1424 1427 1430 1433 1436 1439 1441 1445 1448 1451 1454
1466 1469 1469 1464 1459 1457 1458 1457 1457 1458 1458 1461 1464 1467 1459 1456 1454 1451 1449 1446 1443 1440 1437 1435 1433 1431 1430 1429 1428 1427 1426 1426 1426 1428 1430 1432 1434 1436 1439 1441 1443 1445 1448 1451
1466 1469 1473 1469 1466 1462 1459 1456 1455 1456 1460 1465 1465 1469 1461 1459 1457 1455 1453 1451 1448 1445 1443 1440 1438 1437 1436 1435 1434 1433 1432 1432 1432 1432 1433 1434 1436 1437 1439 1441 1442 1444 1446 1448
1465 1469 1473 1474 1470 1465 1462 1458 1455 1457 1464 1465 1464 1465 1464 1463 1461 1459 1457 1455 1453 1450 1448 1446 1444 1442 1441 1440 1439 1438 1437 1437 1436 1436 1436 1437 1438 1439 1440 1441 1442 1443 1444 1446
1466 1471 1470 1468 1465 1464 1463 1461 1458 1459 1460 1464 1465 1465 1466 1465 1464 1462 1461 1459 1457 1455 1453 1451 1450 1448 1447 1445 1444 1443 1442 1441 1441 1440 1440 1440 1441 1441 1441 1441 1442 1443 1443 1444
1469 1472 1472 1470 1466 1465 1465 1464 1461 1462 1462 1464 1465 1467 1465 1466 1465 1464 1463 1462 1461 1459 1458 1456 1455 1453 1452 1450 1449 1447 1446 1445 1444 1444 1443 1443 1443 1442 1442 1441 1441 1441 1442 1442
1472 1473 1475 1476 1471 1467 1471 1467 1465 1464 1464 1464 1466 1467 1466 1467 1467 1467 1466 1465 1464 1463 1461 1460 1458 1457 1455 1454 1452 1451 1450 1449 1447 1446 1445 1445 1444 1443 1442 1441 1441 1440 1440 1439
1472 1474 1478 1479 1476 1478 1472 1466 1465 1465 1465 1464 1464 1465 1466 1467 1468 1468 1467 1466 1466 1465 1464 1463 1461 1460 1458 1457 1455 1453 1452 1450 1449 1447 1446 1445 1444 1443 1442 1441 1439 1439 1438 1437
1471 1473 1478 1481 1480 1476 1469 1466 1465 1466 1468 1465 1465 1466 1467 1468 1469 1469 1469 1468 1468 1467 1466 1464 1463 1462 1460 1458 1456 1454 1452 1451 1449 1448 1446 1445 1443 1442 1440 1439 1437 1436 1435 1433
1472 1473 1479 1480 1475 1473 1467 1464 1463 1467 1469 1465 1464 1465 1467 1468 1472 1471 1469 1469 1468 1468 1467 1466 1464 1463 1461 1459 1457 1455 1453 1451 1449 1448 1446 1444 1442 1441 1439 1437 1435 1433 1431 1430
1476 1478 1480 1480 1478 1473 1465 1463 1465 1472 1466 1462 1462 1463 1465 1466 1467 1468 1468 1469 1469 1468 1467 1466 1465 1463 1461 1460 1458 1455 1453 1451 1450 1447 1445 1443 1441 1439 1436 1434 1432 1430 1428 1426
1477 1478 1479 1480 1478 1474 1461 1462 1465 1463 1460 1460 1461 1462 1464 1464 1466 1467 1468 1468 1468 1468 1467 1466 1464 1463 1461 1459 1457 1455 1453 1451 1448 1446 1443 1441 1438 1436 1434 1431 1428 1426 1424 1422
1475 1474 1473 1473 1470 1461 1459 1459 1459 1459 1459 1459 1460 1462 1463 1464 1465 1466 1467 1467 1467 1467 1466 1465 1464 1462 1460 1458 1456 1454 1451 1449 1447 1444 1441 1439 1436 1433 1431 1428 1425 1423 1420 1418
1471 1468 1469 1467 1461 1458 1457 1457 1457 1458 1458 1459 1460 1461 1462 1463 1464 1465 1466 1466 1466 1466 1465 1464 1462 1461 1459 1457 1455 1453 1450 1448 1445 1442 1439 1436 1433 1430 1428 1425 1422 1419 1417 1414
1468 1466 1467 1465 1459 1457 1455 1455 1456 1456 1457 1458 1459 1460 1461 1462 1463 1463 1464 1464 1464 1464 1463 1462 1461 1459 1457 1455 1453 1450 1448 1445 1442 1439 1436 1433 1430 1427 1424 1421 1419 1416 1413 1411
1460 1461 1462 1459 1453 1453 1451 1451 1453 1454 1455 1456 1457 1459 1460 1461 1461 1462 1462 1462 1462 1462 1461 1460 1458 1457 1455 1452 1450 1448 1445 1442 1439 1436 1433 1430 1427 1424 1421 1417 1414 1411 1409 1407